Starlink 31667

operational
NORAD ID: 59609 Int'l Des: 2024-080 Owner: SPXS Country: US Constellation: starlink
LEOCIRCULAR

Über Starlink 31667

Beschreibung wird geladen...

Live-Position

3D-Globus wird geladen...

Nächste Überflüge

Höhenverlauf

Altitude vs Time

uPlot chart will show altitude changes over time

Zweizeiliger Elementsatz

1 59609U 24080J 25351.73372717 -.00002542 00000-0 -82860-4 0 9999
2 59609 43.0025 136.8497 0001382 255.9744 104.0955 15.27584010 92045
Epoch: 17. Dez. 2025 • Age: 14 hours

Aktueller Status

Höhe 485.9 km
Geschwindigkeit 7.63 km/s
Subsatellitenpunkt 37.53°N, 18.83°W
Startdatum 28. Apr. 2024
Alter 1.6 years
Typ internet

Technische Details

Klassifizierung Payload
Masse 730.00 kg
Trockenmasse 700.00 kg
Gesamtmasse 730.00 kg
Länge 0.30 m
Durchmesser 4.10 m
Spannweite 29.00 m
Form Box + pan
Hersteller SPXS
Bus-Typ Starlink V2M
Phasenstatus In Orbit
Besitzer/Staat SPXS/US

Große Konstellationen

Loading constellations...